Wetterdaten: Woche 11.01.10 - 17.01.10 (KW2)
Datum Zeit Temp. Innen Temp. Aussen UV X Diff Temp. Feuchte Inne Feuchte Auss Sonnenschein Luftdruck Regen ab 0,1 Wind Sonnenschein Windben
11.01.2010 00:00 9,6 C -0,6 C 0,0 UV-I 0,0 C 45 % 86 % 0 % 1015,4 hPa 0,0 l/m 0,0 km/h (0 Bft) 0,00 h 0,0 km/h (0 Bft)
11.01.2010 01:00 9,6 C -0,8 C 0,0 UV-I 0,0 C 45 % 87 % 0 % 1015,4 hPa 0,0 l/m 0,0 km/h (0 Bft) 0,00 h 0,3 km/h (0 Bft)
11.01.2010 02:00 9,6 C -0,9 C 0,0 UV-I 0,0 C 45 % 87 % 0 % 1015,5 hPa 0,0 l/m 0,9 km/h (0 Bft) 0,00 h 2,0 km/h (1 Bft)
11.01.2010 03:00 9,6 C -0,9 C 0,0 UV-I 0,0 C 45 % 88 % 0 % 1015,5 hPa 0,0 l/m 0,8 km/h (0 Bft) 0,00 h 1,1 km/h (1 Bft)
11.01.2010 04:00 9,5 C -1,1 C 0,0 UV-I 0,0 C 45 % 88 % 0 % 1015,6 hPa 0,0 l/m 0,8 km/h (0 Bft) 0,00 h 1,7 km/h (1 Bft)
11.01.2010 05:00 9,5 C -1,1 C 0,0 UV-I 0,0 C 45 % 89 % 0 % 1015,3 hPa 0,0 l/m 0,8 km/h (0 Bft) 0,00 h 1,2 km/h (1 Bft)
11.01.2010 06:00 9,5 C -1,1 C 0,0 UV-I 0,0 C 45 % 90 % 0 % 1015,0 hPa 0,0 l/m 0,1 km/h (0 Bft) 0,00 h 0,3 km/h (0 Bft)
11.01.2010 07:00 9,5 C -1,1 C 0,0 UV-I 0,0 C 46 % 91 % 0 % 1015,0 hPa 0,0 l/m 0,1 km/h (0 Bft) 0,00 h 0,3 km/h (0 Bft)
11.01.2010 08:00 9,5 C -0,9 C 0,0 UV-I 0,0 C 47 % 92 % 0 % 1015,1 hPa 0,0 l/m 0,0 km/h (0 Bft) 0,00 h 0,2 km/h (0 Bft)
11.01.2010 09:00 9,5 C -0,6 C 0,0 UV-I 0,0 C 48 % 93 % 0 % 1014,8 hPa 0,0 l/m 0,1 km/h (0 Bft) 0,00 h 0,5 km/h (0 Bft)
11.01.2010 10:00 9,6 C -0,3 C 0,0 UV-I 0,0 C 48 % 93 % 0 % 1014,8 hPa 0,0 l/m 0,3 km/h (0 Bft) 0,00 h 0,8 km/h (0 Bft)
11.01.2010 11:00 9,7 C -0,0 C 0,0 UV-I 0,0 C 49 % 93 % 0 % 1015,3 hPa 0,0 l/m 1,1 km/h (0 Bft) 0,00 h 1,5 km/h (1 Bft)
11.01.2010 12:00 9,9 C 0,0 C 0,0 UV-I 0,0 C 49 % 93 % 0 % 1015,2 hPa 0,0 l/m 1,7 km/h (1 Bft) 0,00 h 2,8 km/h (1 Bft)
11.01.2010 13:00 10,0 C 0,0 C 0,0 UV-I 0,0 C 49 % 93 % 0 % 1015,1 hPa 0,0 l/m 1,2 km/h (1 Bft) 0,00 h 1,5 km/h (1 Bft)
11.01.2010 14:00 10,1 C 0,1 C 0,0 UV-I 0,0 C 49 % 93 % 0 % 1015,1 hPa 0,0 l/m 0,5 km/h (0 Bft) 0,00 h 0,8 km/h (0 Bft)
11.01.2010 15:00 10,2 C 0,1 C 0,0 UV-I 0,0 C 49 % 93 % 0 % 1014,9 hPa 0,0 l/m 1,4 km/h (1 Bft) 0,00 h 2,0 km/h (1 Bft)
11.01.2010 16:00 10,2 C -0,1 C 0,0 UV-I 0,0 C 49 % 93 % 0 % 1015,3 hPa 0,0 l/m 1,2 km/h (1 Bft) 0,00 h 2,0 km/h (1 Bft)
11.01.2010 17:00 10,0 C -0,1 C 0,0 UV-I 0,0 C 49 % 93 % 0 % 1015,2 hPa 0,0 l/m 0,4 km/h (0 Bft) 0,00 h 0,6 km/h (0 Bft)
11.01.2010 18:00 9,9 C -0,3 C 0,0 UV-I 0,0 C 49 % 92 % 0 % 1015,3 hPa 0,0 l/m 0,0 km/h (0 Bft) 0,00 h 0,1 km/h (0 Bft)
11.01.2010 19:00 9,8 C -0,5 C 0,0 UV-I 0,0 C 48 % 92 % 0 % 1015,3 hPa 0,0 l/m 0,0 km/h (0 Bft) 0,00 h 0,0 km/h (0 Bft)
11.01.2010 20:00 9,7 C -0,5 C 0,0 UV-I 0,0 C 49 % 93 % 0 % 1015,5 hPa 0,0 l/m 0,0 km/h (0 Bft) 0,00 h 0,1 km/h (0 Bft)
11.01.2010 21:00 9,7 C -0,5 C 0,0 UV-I 0,0 C 49 % 93 % 0 % 1015,8 hPa 0,0 l/m 0,0 km/h (0 Bft) 0,00 h 0,0 km/h (0 Bft)
11.01.2010 22:00 9,7 C -0,6 C 0,0 UV-I 0,0 C 49 % 93 % 0 % 1015,8 hPa 0,0 l/m 0,0 km/h (0 Bft) 0,00 h 0,0 km/h (0 Bft)
11.01.2010 23:00 9,8 C -0,8 C 0,0 UV-I 0,0 C 48 % 91 % 0 % 1015,8 hPa 0,0 l/m 0,0 km/h (0 Bft) 0,00 h 0,0 km/h (0 Bft)
12.01.2010 00:00 9,6 C -0,9 C 0,0 UV-I 0,0 C 47 % 90 % 0 % 1015,7 hPa 0,0 l/m 0,0 km/h (0 Bft) 0,00 h 0,0 km/h (0 Bft)
12.01.2010 01:00 9,7 C -0,9 C 0,0 UV-I 0,0 C 47 % 90 % 0 % 1015,3 hPa 0,0 l/m 0,0 km/h (0 Bft) 0,00 h 0,0 km/h (0 Bft)
12.01.2010 02:00 9,7 C -1,0 C 0,0 UV-I 0,0 C 47 % 90 % 0 % 1015,2 hPa 0,0 l/m 0,0 km/h (0 Bft) 0,00 h 0,0 km/h (0 Bft)
12.01.2010 03:00 9,6 C -1,1 C 0,0 UV-I 0,0 C 47 % 90 % 0 % 1015,2 hPa 0,0 l/m 0,0 km/h (0 Bft) 0,00 h 0,0 km/h (0 Bft)
12.01.2010 04:00 9,6 C -1,3 C 0,0 UV-I 0,0 C 47 % 90 % 0 % 1015,1 hPa 0,0 l/m 0,0 km/h (0 Bft) 0,00 h 0,0 km/h (0 Bft)
12.01.2010 05:00 9,6 C -1,4 C 0,0 UV-I 0,0 C 46 % 90 % 0 % 1015,0 hPa 0,0 l/m 0,0 km/h (0 Bft) 0,00 h 0,0 km/h (0 Bft)
12.01.2010 06:00 9,7 C -1,6 C 0,0 UV-I 0,0 C 46 % 91 % 0 % 1014,6 hPa 0,0 l/m 0,0 km/h (0 Bft) 0,00 h 0,0 km/h (0 Bft)
12.01.2010 07:00 9,6 C -1,9 C 0,0 UV-I 0,0 C 46 % 91 % 0 % 1014,0 hPa 0,0 l/m 0,0 km/h (0 Bft) 0,00 h 0,0 km/h (0 Bft)
12.01.2010 08:00 9,4 C -2,2 C 0,0 UV-I 0,0 C 46 % 92 % 0 % 1014,1 hPa 0,0 l/m 0,0 km/h (0 Bft) 0,00 h 0,1 km/h (0 Bft)
12.01.2010 09:00 9,5 C -2,1 C 0,0 UV-I 0,0 C 46 % 93 % 0 % 1013,8 hPa 0,0 l/m 0,0 km/h (0 Bft) 0,00 h 0,1 km/h (0 Bft)
12.01.2010 10:00 9,6 C -1,4 C 0,0 UV-I 0,2 C 47 % 93 % 6 % 1013,7 hPa 0,0 l/m 0,4 km/h (0 Bft) 0,00 h 1,1 km/h (1 Bft)
12.01.2010 11:00 9,8 C -0,7 C 0,0 UV-I 1,3 C 46 % 90 % 38 % 1013,5 hPa 0,0 l/m 1,4 km/h (1 Bft) 0,13 h 3,4 km/h (1 Bft)
12.01.2010 12:00 10,0 C -0,2 C 0,0 UV-I 0,5 C 45 % 87 % 15 % 1012,8 hPa 0,0 l/m 1,5 km/h (1 Bft) 0,00 h 2,7 km/h (1 Bft)
12.01.2010 13:00 10,2 C 0,0 C 0,0 UV-I 0,2 C 45 % 85 % 7 % 1012,2 hPa 0,1 l/m 1,7 km/h (1 Bft) 0,00 h 3,0 km/h (1 Bft)
12.01.2010 14:00 10,2 C -0,2 C 0,0 UV-I 0,0 C 45 % 83 % 0 % 1011,2 hPa 0,0 l/m 1,7 km/h (1 Bft) 0,00 h 3,6 km/h (1 Bft)
12.01.2010 15:00 10,2 C -0,4 C 0,0 UV-I 0,0 C 45 % 82 % 0 % 1010,3 hPa 0,0 l/m 0,9 km/h (0 Bft) 0,00 h 1,4 km/h (1 Bft)
12.01.2010 16:00 10,1 C -0,6 C 0,0 UV-I 0,0 C 45 % 83 % 0 % 1009,1 hPa 0,0 l/m 1,6 km/h (1 Bft) 0,00 h 2,7 km/h (1 Bft)
12.01.2010 17:00 10,0 C -0,8 C 0,0 UV-I 0,0 C 46 % 84 % 0 % 1008,0 hPa 0,0 l/m 1,7 km/h (1 Bft) 0,00 h 2,3 km/h (1 Bft)
12.01.2010 18:00 9,9 C -0,9 C 0,0 UV-I 0,0 C 46 % 84 % 0 % 1007,7 hPa 0,0 l/m 2,1 km/h (1 Bft) 0,00 h 3,8 km/h (1 Bft)
12.01.2010 19:00 9,9 C -1,0 C 0,0 UV-I 0,0 C 44 % 84 % 0 % 1007,2 hPa 0,0 l/m 1,7 km/h (1 Bft) 0,00 h 2,4 km/h (1 Bft)
12.01.2010 20:00 9,7 C -1,3 C 0,0 UV-I 0,0 C 44 % 84 % 0 % 1007,0 hPa 0,0 l/m 1,8 km/h (1 Bft) 0,00 h 3,2 km/h (1 Bft)
12.01.2010 21:00 9,6 C -1,5 C 0,0 UV-I 0,0 C 44 % 84 % 0 % 1006,2 hPa 0,0 l/m 1,2 km/h (1 Bft) 0,00 h 1,6 km/h (1 Bft)
12.01.2010 22:00 9,6 C -1,4 C 0,0 UV-I 0,0 C 44 % 85 % 0 % 1005,4 hPa 0,0 l/m 1,1 km/h (0 Bft) 0,00 h 2,2 km/h (1 Bft)
12.01.2010 23:00 9,6 C -1,3 C 0,0 UV-I 0,0 C 43 % 84 % 0 % 1004,7 hPa 0,0 l/m 1,7 km/h (1 Bft) 0,00 h 2,6 km/h (1 Bft)
13.01.2010 00:00 9,5 C -1,6 C 0,0 UV-I 0,0 C 43 % 83 % 0 % 1004,0 hPa 0,0 l/m 2,3 km/h (1 Bft) 0,00 h 6,4 km/h (2 Bft)
13.01.2010 01:00 9,4 C -1,7 C 0,0 UV-I 0,0 C 43 % 83 % 0 % 1003,7 hPa 0,0 l/m 1,3 km/h (1 Bft) 0,00 h 2,5 km/h (1 Bft)
13.01.2010 02:00 9,4 C -2,1 C 0,0 UV-I 0,0 C 43 % 83 % 0 % 1003,2 hPa 0,0 l/m 0,6 km/h (0 Bft) 0,00 h 1,2 km/h (1 Bft)
13.01.2010 03:00 9,3 C -2,5 C 0,0 UV-I 0,0 C 43 % 85 % 0 % 1003,2 hPa 0,0 l/m 0,1 km/h (0 Bft) 0,00 h 0,6 km/h (0 Bft)
13.01.2010 04:00 9,2 C -2,2 C 0,0 UV-I 0,0 C 43 % 85 % 0 % 1002,7 hPa 0,0 l/m 0,9 km/h (0 Bft) 0,00 h 1,7 km/h (1 Bft)
13.01.2010 05:00 9,2 C -2,2 C 0,0 UV-I 0,0 C 43 % 84 % 0 % 1002,1 hPa 0,0 l/m 1,2 km/h (1 Bft) 0,00 h 1,7 km/h (1 Bft)
13.01.2010 06:00 9,2 C -2,3 C 0,0 UV-I 0,0 C 42 % 83 % 0 % 1001,7 hPa 0,0 l/m 1,3 km/h (1 Bft) 0,00 h 2,6 km/h (1 Bft)
13.01.2010 07:00 9,2 C -2,4 C 0,0 UV-I 0,0 C 42 % 83 % 0 % 1001,8 hPa 0,0 l/m 1,9 km/h (1 Bft) 0,00 h 2,7 km/h (1 Bft)
13.01.2010 08:00 9,2 C -2,6 C 0,0 UV-I 0,0 C 42 % 82 % 0 % 1002,1 hPa 0,0 l/m 3,3 km/h (1 Bft) 0,00 h 5,2 km/h (1 Bft)
13.01.2010 09:00 9,2 C -2,6 C 0,0 UV-I 0,0 C 41 % 82 % 0 % 1002,3 hPa 0,0 l/m 2,8 km/h (1 Bft) 0,00 h 4,1 km/h (1 Bft)
13.01.2010 10:00 9,1 C -2,0 C 0,1 UV-I 0,0 C 41 % 82 % 0 % 1002,4 hPa 0,0 l/m 4,2 km/h (1 Bft) 0,00 h 6,7 km/h (2 Bft)
13.01.2010 11:00 9,4 C -1,2 C 0,1 UV-I 0,4 C 41 % 81 % 10 % 1002,5 hPa 0,0 l/m 2,8 km/h (1 Bft) 0,00 h 4,3 km/h (1 Bft)
13.01.2010 12:00 9,6 C -0,6 C 0,1 UV-I 0,3 C 41 % 79 % 8 % 1002,3 hPa 0,0 l/m 2,2 km/h (1 Bft) 0,00 h 4,2 km/h (1 Bft)
13.01.2010 13:00 9,8 C -0,1 C 0,1 UV-I 0,3 C 41 % 78 % 7 % 1001,8 hPa 0,0 l/m 3,0 km/h (1 Bft) 0,00 h 5,1 km/h (1 Bft)
13.01.2010 14:00 9,9 C 0,3 C 0,2 UV-I 0,5 C 41 % 77 % 15 % 1001,8 hPa 0,0 l/m 2,9 km/h (1 Bft) 0,00 h 4,4 km/h (1 Bft)
13.01.2010 15:00 9,8 C -0,2 C 0,0 UV-I 0,0 C 41 % 81 % 0 % 1001,6 hPa 0,0 l/m 4,7 km/h (1 Bft) 0,00 h 7,1 km/h (2 Bft)
13.01.2010 16:00 9,6 C -0,8 C 0,0 UV-I 0,0 C 43 % 84 % 0 % 1001,5 hPa 0,0 l/m 4,1 km/h (1 Bft) 0,00 h 6,3 km/h (2 Bft)
13.01.2010 17:00 9,4 C -1,2 C 0,0 UV-I 0,0 C 43 % 84 % 0 % 1001,7 hPa 0,0 l/m 4,8 km/h (1 Bft) 0,00 h 7,1 km/h (2 Bft)
13.01.2010 18:00 9,4 C -1,3 C 0,0 UV-I 0,0 C 43 % 86 % 0 % 1001,9 hPa 0,0 l/m 5,1 km/h (1 Bft) 0,00 h 6,1 km/h (2 Bft)
13.01.2010 19:00 9,2 C -1,3 C 0,0 UV-I 0,0 C 44 % 87 % 0 % 1002,0 hPa 0,0 l/m 4,5 km/h (1 Bft) 0,00 h 6,8 km/h (2 Bft)
13.01.2010 20:00 9,2 C -1,3 C 0,0 UV-I 0,0 C 43 % 86 % 0 % 1002,1 hPa 0,0 l/m 6,5 km/h (2 Bft) 0,00 h 8,6 km/h (2 Bft)
13.01.2010 21:00 9,2 C -1,3 C 0,0 UV-I 0,0 C 43 % 86 % 0 % 1002,5 hPa 0,0 l/m 4,6 km/h (1 Bft) 0,00 h 5,5 km/h (1 Bft)
13.01.2010 22:00 9,2 C -1,1 C 0,0 UV-I 0,0 C 44 % 86 % 0 % 1002,9 hPa 0,0 l/m 3,7 km/h (1 Bft) 0,00 h 5,9 km/h (2 Bft)
13.01.2010 23:00 9,2 C -0,9 C 0,0 UV-I 0,0 C 44 % 87 % 0 % 1002,9 hPa 0,0 l/m 3,5 km/h (1 Bft) 0,00 h 5,5 km/h (1 Bft)
14.01.2010 00:00 9,3 C -0,7 C 0,0 UV-I 0,0 C 45 % 88 % 0 % 1003,1 hPa 0,0 l/m 2,8 km/h (1 Bft) 0,00 h 5,0 km/h (1 Bft)
14.01.2010 01:00 9,4 C -0,5 C 0,0 UV-I 0,0 C 45 % 89 % 0 % 1003,0 hPa 0,0 l/m 2,2 km/h (1 Bft) 0,00 h 3,7 km/h (1 Bft)
14.01.2010 02:00 9,4 C -0,3 C 0,0 UV-I 0,0 C 46 % 89 % 0 % 1003,1 hPa 0,0 l/m 1,2 km/h (1 Bft) 0,00 h 1,9 km/h (1 Bft)
14.01.2010 03:00 9,5 C -0,1 C 0,0 UV-I 0,0 C 46 % 90 % 0 % 1003,3 hPa 0,0 l/m 1,0 km/h (0 Bft) 0,00 h 2,1 km/h (1 Bft)
14.01.2010 04:00 9,6 C 0,0 C 0,0 UV-I 0,0 C 47 % 90 % 0 % 1003,3 hPa 0,0 l/m 2,1 km/h (1 Bft) 0,00 h 3,9 km/h (1 Bft)
14.01.2010 05:00 9,6 C 0,3 C 0,0 UV-I 0,0 C 47 % 90 % 0 % 1003,6 hPa 0,0 l/m 1,7 km/h (1 Bft) 0,00 h 2,7 km/h (1 Bft)
14.01.2010 06:00 9,6 C 0,4 C 0,0 UV-I 0,0 C 47 % 91 % 0 % 1003,7 hPa 0,0 l/m 1,6 km/h (1 Bft) 0,00 h 3,0 km/h (1 Bft)
14.01.2010 07:00 9,7 C 0,4 C 0,0 UV-I 0,0 C 48 % 91 % 0 % 1003,7 hPa 0,0 l/m 1,7 km/h (1 Bft) 0,00 h 2,6 km/h (1 Bft)
14.01.2010 08:00 9,7 C 0,4 C 0,0 UV-I 0,0 C 48 % 91 % 0 % 1004,0 hPa 0,0 l/m 2,2 km/h (1 Bft) 0,00 h 2,8 km/h (1 Bft)
14.01.2010 09:00 9,6 C 0,1 C 0,0 UV-I 0,0 C 48 % 91 % 0 % 1004,6 hPa 0,0 l/m 1,6 km/h (1 Bft) 0,00 h 3,0 km/h (1 Bft)
14.01.2010 10:00 9,8 C 0,6 C 0,0 UV-I 2,7 C 48 % 90 % 60 % 1005,0 hPa 0,0 l/m 3,6 km/h (1 Bft) 0,60 h 5,4 km/h (1 Bft)
14.01.2010 11:00 10,0 C 1,5 C 0,7 UV-I 4,2 C 48 % 88 % 92 % 1005,3 hPa 0,1 l/m 4,2 km/h (1 Bft) 0,90 h 6,9 km/h (2 Bft)
14.01.2010 12:00 10,3 C 2,8 C 1,6 UV-I 5,8 C 48 % 85 % 100 % 1005,6 hPa 0,0 l/m 2,8 km/h (1 Bft) 1,00 h 3,8 km/h (1 Bft)
14.01.2010 13:00 10,6 C 3,7 C 1,6 UV-I 6,1 C 48 % 82 % 100 % 1005,7 hPa 0,0 l/m 3,0 km/h (1 Bft) 0,92 h 4,1 km/h (1 Bft)
14.01.2010 14:00 11,9 C 4,3 C 1,2 UV-I 6,1 C 46 % 81 % 100 % 1007,5 hPa 0,4 l/m 1,8 km/h (1 Bft) 1,00 h 2,9 km/h (1 Bft)
14.01.2010 15:00 12,5 C 3,9 C 0,7 UV-I 4,2 C 44 % 81 % 82 % 1007,2 hPa 0,4 l/m 1,2 km/h (1 Bft) 0,90 h 1,8 km/h (1 Bft)
14.01.2010 16:00 11,9 C 2,9 C 0,1 UV-I 0,1 C 45 % 85 % 2 % 1006,7 hPa 0,2 l/m 0,2 km/h (0 Bft) 0,00 h 0,8 km/h (0 Bft)
14.01.2010 17:00 11,3 C 2,4 C 0,0 UV-I 0,2 C 47 % 87 % 0 % 1007,0 hPa 0,1 l/m 0,0 km/h (0 Bft) 0,00 h 0,0 km/h (0 Bft)
14.01.2010 18:00 11,0 C 2,3 C 0,0 UV-I 0,3 C 48 % 89 % 0 % 1007,6 hPa 0,1 l/m 0,2 km/h (0 Bft) 0,00 h 0,2 km/h (0 Bft)
14.01.2010 19:00 10,8 C 2,3 C 0,0 UV-I 0,2 C 49 % 89 % 0 % 1008,1 hPa 0,1 l/m 0,7 km/h (0 Bft) 0,00 h 1,7 km/h (1 Bft)
14.01.2010 20:00 10,8 C 2,3 C 0,0 UV-I 0,0 C 49 % 89 % 0 % 1008,8 hPa 0,1 l/m 0,4 km/h (0 Bft) 0,00 h 1,1 km/h (1 Bft)
14.01.2010 21:00 10,8 C 2,1 C 0,0 UV-I 0,0 C 49 % 89 % 0 % 1009,6 hPa 0,0 l/m 0,5 km/h (0 Bft) 0,00 h 1,2 km/h (1 Bft)
14.01.2010 22:00 10,8 C 1,8 C 0,0 UV-I 0,0 C 49 % 89 % 0 % 1010,2 hPa 0,1 l/m 0,2 km/h (0 Bft) 0,00 h 0,5 km/h (0 Bft)
14.01.2010 23:00 10,8 C 1,9 C 0,0 UV-I 0,0 C 49 % 89 % 0 % 1010,4 hPa 0,0 l/m 2,1 km/h (1 Bft) 0,00 h 4,7 km/h (1 Bft)
15.01.2010 00:00 10,8 C 1,9 C 0,0 UV-I 0,0 C 49 % 88 % 0 % 1011,8 hPa 0,0 l/m 1,3 km/h (1 Bft) 0,00 h 3,4 km/h (1 Bft)
15.01.2010 01:00 10,8 C 1,7 C 0,0 UV-I 0,0 C 49 % 88 % 0 % 1012,1 hPa 0,1 l/m 1,2 km/h (1 Bft) 0,00 h 2,1 km/h (1 Bft)
15.01.2010 02:00 10,8 C 1,5 C 0,0 UV-I 0,0 C 48 % 88 % 0 % 1012,7 hPa 0,0 l/m 1,6 km/h (1 Bft) 0,00 h 4,0 km/h (1 Bft)
15.01.2010 03:00 10,7 C 1,2 C 0,0 UV-I 0,0 C 48 % 89 % 0 % 1013,4 hPa 0,0 l/m 1,5 km/h (1 Bft) 0,00 h 4,1 km/h (1 Bft)
15.01.2010 04:00 10,7 C 1,1 C 0,0 UV-I 0,0 C 48 % 89 % 0 % 1014,0 hPa 0,0 l/m 1,1 km/h (1 Bft) 0,00 h 2,1 km/h (1 Bft)
15.01.2010 05:00 10,7 C 1,1 C 0,0 UV-I 0,0 C 48 % 90 % 0 % 1014,6 hPa 0,0 l/m 0,9 km/h (0 Bft) 0,00 h 1,2 km/h (1 Bft)
15.01.2010 06:00 10,6 C 1,1 C 0,0 UV-I 0,0 C 48 % 90 % 0 % 1015,3 hPa 0,0 l/m 0,5 km/h (0 Bft) 0,00 h 2,2 km/h (1 Bft)
15.01.2010 07:00 10,7 C 1,1 C 0,0 UV-I 0,0 C 48 % 90 % 0 % 1016,2 hPa 0,1 l/m 0,4 km/h (0 Bft) 0,00 h 0,8 km/h (0 Bft)
15.01.2010 08:00 10,7 C 1,1 C 0,0 UV-I 0,0 C 48 % 90 % 0 % 1016,7 hPa 0,0 l/m 1,3 km/h (1 Bft) 0,00 h 2,9 km/h (1 Bft)
15.01.2010 09:00 10,7 C 1,2 C 0,0 UV-I 0,0 C 48 % 90 % 0 % 1017,4 hPa 0,0 l/m 3,1 km/h (1 Bft) 0,00 h 4,2 km/h (1 Bft)
15.01.2010 10:00 10,8 C 1,4 C 0,0 UV-I 0,0 C 48 % 89 % 0 % 1018,7 hPa 0,0 l/m 2,9 km/h (1 Bft) 0,00 h 4,1 km/h (1 Bft)
15.01.2010 11:00 10,8 C 1,6 C 0,0 UV-I 0,1 C 48 % 89 % 3 % 1019,9 hPa 0,0 l/m 2,3 km/h (1 Bft) 0,00 h 3,2 km/h (1 Bft)
15.01.2010 12:00 10,8 C 1,8 C 0,0 UV-I 0,2 C 48 % 88 % 6 % 1020,0 hPa 0,1 l/m 1,1 km/h (1 Bft) 0,00 h 2,1 km/h (1 Bft)
15.01.2010 13:00 11,0 C 2,0 C 0,1 UV-I 0,3 C 48 % 88 % 8 % 1020,0 hPa 0,0 l/m 2,3 km/h (1 Bft) 0,00 h 3,4 km/h (1 Bft)
15.01.2010 14:00 11,0 C 2,1 C 0,0 UV-I 0,3 C 49 % 89 % 8 % 1020,4 hPa 0,0 l/m 0,8 km/h (0 Bft) 0,00 h 1,4 km/h (1 Bft)
15.01.2010 15:00 11,0 C 2,0 C 0,0 UV-I 0,0 C 49 % 89 % 1 % 1021,1 hPa 0,0 l/m 0,3 km/h (0 Bft) 0,00 h 0,8 km/h (0 Bft)
15.01.2010 16:00 11,0 C 1,9 C 0,0 UV-I 0,0 C 49 % 89 % 0 % 1021,7 hPa 0,0 l/m 0,2 km/h (0 Bft) 0,00 h 0,5 km/h (0 Bft)
15.01.2010 17:00 10,8 C 1,9 C 0,0 UV-I 0,0 C 49 % 90 % 0 % 1022,0 hPa 0,0 l/m 0,4 km/h (0 Bft) 0,00 h 0,8 km/h (0 Bft)
15.01.2010 18:00 10,8 C 1,8 C 0,0 UV-I 0,0 C 50 % 90 % 0 % 1022,4 hPa 0,0 l/m 0,9 km/h (0 Bft) 0,00 h 1,2 km/h (1 Bft)
15.01.2010 19:00 10,8 C 1,8 C 0,0 UV-I 0,0 C 50 % 91 % 0 % 1022,5 hPa 0,0 l/m 1,7 km/h (1 Bft) 0,00 h 2,4 km/h (1 Bft)
15.01.2010 20:00 10,8 C 1,7 C 0,0 UV-I 0,0 C 50 % 91 % 0 % 1023,0 hPa 0,0 l/m 1,4 km/h (1 Bft) 0,00 h 2,1 km/h (1 Bft)
15.01.2010 21:00 10,8 C 1,6 C 0,0 UV-I 0,0 C 50 % 91 % 0 % 1022,9 hPa 0,0 l/m 0,5 km/h (0 Bft) 0,00 h 1,0 km/h (0 Bft)
15.01.2010 22:00 10,8 C 1,6 C 0,0 UV-I 0,0 C 50 % 90 % 0 % 1023,1 hPa 0,0 l/m 0,7 km/h (0 Bft) 0,00 h 1,1 km/h (0 Bft)
15.01.2010 23:00 10,8 C 1,6 C 0,0 UV-I 0,0 C 50 % 90 % 0 % 1023,2 hPa 0,0 l/m 0,8 km/h (0 Bft) 0,00 h 1,8 km/h (1 Bft)
16.01.2010 00:00 10,9 C 1,6 C 0,0 UV-I 0,0 C 49 % 90 % 0 % 1023,1 hPa 0,0 l/m 2,8 km/h (1 Bft) 0,00 h 4,0 km/h (1 Bft)
16.01.2010 01:00 11,0 C 1,6 C 0,0 UV-I 0,0 C 49 % 90 % 0 % 1022,9 hPa 0,0 l/m 2,0 km/h (1 Bft) 0,00 h 2,8 km/h (1 Bft)
16.01.2010 02:00 11,0 C 1,5 C 0,0 UV-I 0,0 C 49 % 90 % 0 % 1022,2 hPa 0,0 l/m 1,6 km/h (1 Bft) 0,00 h 2,8 km/h (1 Bft)
16.01.2010 03:00 11,0 C 1,5 C 0,0 UV-I 0,0 C 49 % 90 % 0 % 1022,3 hPa 0,0 l/m 2,3 km/h (1 Bft) 0,00 h 3,3 km/h (1 Bft)
16.01.2010 04:00 11,0 C 1,3 C 0,0 UV-I 0,0 C 49 % 90 % 0 % 1021,3 hPa 0,0 l/m 2,4 km/h (1 Bft) 0,00 h 3,8 km/h (1 Bft)
16.01.2010 05:00 10,9 C 1,2 C 0,0 UV-I 0,0 C 49 % 90 % 0 % 1020,3 hPa 0,0 l/m 2,5 km/h (1 Bft) 0,00 h 3,5 km/h (1 Bft)
16.01.2010 06:00 10,8 C 1,0 C 0,0 UV-I 0,0 C 48 % 89 % 0 % 1019,8 hPa 0,0 l/m 3,0 km/h (1 Bft) 0,00 h 4,9 km/h (1 Bft)
16.01.2010 07:00 10,8 C 0,8 C 0,0 UV-I 0,0 C 48 % 88 % 0 % 1019,0 hPa 0,0 l/m 4,0 km/h (1 Bft) 0,00 h 7,0 km/h (2 Bft)
16.01.2010 08:00 10,8 C 0,6 C 0,0 UV-I 0,0 C 47 % 89 % 0 % 1018,0 hPa 0,0 l/m 4,7 km/h (1 Bft) 0,00 h 7,3 km/h (2 Bft)
16.01.2010 09:00 10,8 C 0,7 C 0,0 UV-I 0,0 C 47 % 89 % 0 % 1016,9 hPa 0,0 l/m 5,9 km/h (2 Bft) 0,00 h 10,0 km/h (2 Bft)
16.01.2010 10:00 10,8 C 0,7 C 0,2 UV-I 0,0 C 47 % 89 % 0 % 1016,5 hPa 0,0 l/m 8,2 km/h (2 Bft) 0,00 h 11,9 km/h (2 Bft)
16.01.2010 11:00 10,8 C 0,8 C 0,6 UV-I 0,0 C 47 % 88 % 0 % 1016,5 hPa 0,0 l/m 8,2 km/h (2 Bft) 0,00 h 14,9 km/h (3 Bft)
16.01.2010 12:00 10,8 C 0,8 C 0,8 UV-I 0,0 C 47 % 87 % 0 % 1015,6 hPa 0,0 l/m 6,9 km/h (2 Bft) 0,00 h 10,6 km/h (2 Bft)
16.01.2010 13:00 11,0 C 0,9 C 1,0 UV-I 0,0 C 46 % 86 % 0 % 1014,3 hPa 0,0 l/m 7,0 km/h (2 Bft) 0,00 h 8,6 km/h (2 Bft)
16.01.2010 14:00 11,0 C 0,9 C 0,5 UV-I 0,0 C 46 % 85 % 0 % 1012,9 hPa 0,0 l/m 6,7 km/h (2 Bft) 0,00 h 8,6 km/h (2 Bft)
16.01.2010 15:00 10,8 C 0,8 C 0,1 UV-I 0,0 C 45 % 85 % 0 % 1011,2 hPa 0,0 l/m 9,0 km/h (2 Bft) 0,00 h 12,8 km/h (3 Bft)
16.01.2010 16:00 10,7 C 0,6 C 0,0 UV-I 0,0 C 45 % 85 % 0 % 1010,5 hPa 0,0 l/m 9,7 km/h (2 Bft) 0,00 h 15,7 km/h (3 Bft)
16.01.2010 17:00 10,6 C 0,6 C 0,0 UV-I 0,0 C 46 % 85 % 0 % 1010,2 hPa 0,0 l/m 9,9 km/h (2 Bft) 0,00 h 15,9 km/h (3 Bft)
16.01.2010 18:00 10,4 C 0,7 C 0,0 UV-I 0,0 C 46 % 86 % 0 % 1009,7 hPa 0,0 l/m 9,3 km/h (2 Bft) 0,00 h 12,1 km/h (2 Bft)
16.01.2010 19:00 10,4 C 0,7 C 0,0 UV-I 0,0 C 47 % 88 % 0 % 1008,6 hPa 0,9 l/m 9,2 km/h (2 Bft) 0,00 h 14,0 km/h (3 Bft)
16.01.2010 20:00 10,5 C 0,7 C 0,0 UV-I 0,0 C 48 % 91 % 0 % 1007,5 hPa 1,9 l/m 7,5 km/h (2 Bft) 0,00 h 11,6 km/h (2 Bft)
16.01.2010 21:00 10,4 C 0,7 C 0,0 UV-I 0,0 C 49 % 92 % 0 % 1006,7 hPa 3,2 l/m 8,9 km/h (2 Bft) 0,00 h 12,6 km/h (3 Bft)
16.01.2010 22:00 10,3 C 0,7 C 0,0 UV-I 0,0 C 50 % 93 % 0 % 1006,2 hPa 0,0 l/m 7,3 km/h (2 Bft) 0,00 h 10,5 km/h (2 Bft)
16.01.2010 23:00 10,3 C 0,8 C 0,0 UV-I 0,0 C 50 % 94 % 0 % 1005,5 hPa 0,0 l/m 7,7 km/h (2 Bft) 0,00 h 10,3 km/h (2 Bft)
17.01.2010 00:00 10,3 C 0,9 C 0,0 UV-I 0,0 C 51 % 94 % 0 % 1005,1 hPa 0,2 l/m 5,6 km/h (1 Bft) 0,00 h 7,4 km/h (2 Bft)
17.01.2010 01:00 10,4 C 1,0 C 0,0 UV-I 0,0 C 51 % 94 % 0 % 1004,9 hPa 0,2 l/m 3,7 km/h (1 Bft) 0,00 h 6,0 km/h (2 Bft)
17.01.2010 02:00 10,4 C 1,1 C 0,0 UV-I 0,0 C 51 % 95 % 0 % 1004,8 hPa 0,5 l/m 2,1 km/h (1 Bft) 0,00 h 3,7 km/h (1 Bft)
17.01.2010 03:00 10,5 C 1,2 C 0,0 UV-I 0,0 C 52 % 95 % 0 % 1004,8 hPa 0,5 l/m 2,2 km/h (1 Bft) 0,00 h 4,6 km/h (1 Bft)
17.01.2010 04:00 10,5 C 1,4 C 0,0 UV-I 0,0 C 52 % 95 % 0 % 1004,8 hPa 0,3 l/m 2,5 km/h (1 Bft) 0,00 h 3,9 km/h (1 Bft)
17.01.2010 05:00 10,4 C 1,6 C 0,0 UV-I 0,0 C 53 % 96 % 0 % 1004,9 hPa 0,3 l/m 3,7 km/h (1 Bft) 0,00 h 4,6 km/h (1 Bft)
17.01.2010 06:00 10,4 C 1,9 C 0,0 UV-I 0,0 C 54 % 96 % 0 % 1005,0 hPa 0,2 l/m 4,0 km/h (1 Bft) 0,00 h 4,7 km/h (1 Bft)
17.01.2010 07:00 10,5 C 2,0 C 0,0 UV-I 0,0 C 54 % 96 % 0 % 1005,3 hPa 0,1 l/m 0,6 km/h (0 Bft) 0,00 h 0,5 km/h (0 Bft)
17.01.2010 08:00 10,6 C 2,1 C 0,0 UV-I 0,0 C 55 % 96 % 0 % 1006,1 hPa 0,0 l/m 1,4 km/h (1 Bft) 0,00 h 2,2 km/h (1 Bft)
17.01.2010 09:00 10,6 C 2,3 C 0,0 UV-I 0,0 C 55 % 96 % 0 % 1007,2 hPa 0,0 l/m 1,2 km/h (1 Bft) 0,00 h 1,8 km/h (1 Bft)
17.01.2010 10:00 10,8 C 3,2 C 0,0 UV-I 0,1 C 56 % 97 % 3 % 1008,4 hPa 1,1 l/m 1,4 km/h (1 Bft) 0,00 h 2,6 km/h (1 Bft)
17.01.2010 11:00 10,9 C 4,1 C 0,0 UV-I 0,0 C 57 % 97 % 0 % 1009,5 hPa 0,6 l/m 3,7 km/h (1 Bft) 0,00 h 5,7 km/h (1 Bft)
17.01.2010 12:00 11,1 C 4,8 C 0,0 UV-I 0,0 C 58 % 97 % 0 % 1010,6 hPa 0,3 l/m 5,7 km/h (1 Bft) 0,00 h 9,4 km/h (2 Bft)
17.01.2010 13:00 11,5 C 5,3 C 0,0 UV-I 0,0 C 58 % 97 % 1 % 1012,1 hPa 0,0 l/m 5,4 km/h (1 Bft) 0,00 h 8,5 km/h (2 Bft)
17.01.2010 14:00 11,6 C 5,5 C 0,2 UV-I 0,1 C 58 % 97 % 4 % 1013,0 hPa 0,0 l/m 5,6 km/h (1 Bft) 0,00 h 8,0 km/h (2 Bft)
17.01.2010 15:00 11,9 C 5,7 C 0,1 UV-I 0,3 C 58 % 95 % 8 % 1014,6 hPa 0,0 l/m 4,7 km/h (1 Bft) 0,00 h 6,5 km/h (2 Bft)
17.01.2010 16:00 11,9 C 5,8 C 0,0 UV-I 0,0 C 57 % 93 % 0 % 1015,8 hPa 0,0 l/m 2,5 km/h (1 Bft) 0,00 h 3,9 km/h (1 Bft)
17.01.2010 17:00 11,7 C 5,1 C 0,0 UV-I 0,0 C 57 % 93 % 0 % 1016,8 hPa 0,0 l/m 1,1 km/h (1 Bft) 0,00 h 2,0 km/h (1 Bft)
17.01.2010 18:00 11,4 C 4,6 C 0,0 UV-I 0,0 C 57 % 93 % 0 % 1017,2 hPa 0,0 l/m 1,1 km/h (1 Bft) 0,00 h 2,0 km/h (1 Bft)
17.01.2010 19:00 11,4 C 4,4 C 0,0 UV-I 0,0 C 57 % 93 % 0 % 1018,1 hPa 0,0 l/m 0,4 km/h (0 Bft) 0,00 h 0,9 km/h (0 Bft)
17.01.2010 20:00 11,5 C 4,4 C 0,0 UV-I 0,0 C 57 % 93 % 0 % 1018,7 hPa 0,0 l/m 0,1 km/h (0 Bft) 0,00 h 0,3 km/h (0 Bft)
17.01.2010 21:00 11,5 C 4,7 C 0,0 UV-I 0,0 C 57 % 93 % 0 % 1018,9 hPa 0,3 l/m 1,8 km/h (1 Bft) 0,00 h 3,0 km/h (1 Bft)
17.01.2010 22:00 11,6 C 4,7 C 0,0 UV-I 0,0 C 57 % 93 % 0 % 1019,7 hPa 0,1 l/m 2,3 km/h (1 Bft) 0,00 h 3,8 km/h (1 Bft)
17.01.2010 23:00 11,5 C 4,7 C 0,0 UV-I 0,0 C 57 % 93 % 0 % 1020,1 hPa 0,0 l/m 2,6 km/h (1 Bft) 0,00 h 4,2 km/h (1 Bft)
Min-Datum _ 13.01.10 13.01.10 11.01.10 11.01.10 13.01.10 13.01.10 11.01.10 13.01.10 - 11.01.10 - 11.01.10
_ Min-Zeit 05:28 03:00 00:00 00:00 08:46 13:30 00:00 14:54 - 00:00 - 00:00
Minimum _ 9,1 C -2,7 C 0,0 UV-I 0,0 C 41 % 77 % 0 % 1001,3 hPa - 0,0 km/h (0 Bft) - 0,0 km/h (0 Bft)
Max-Datum _ 14.01.10 17.01.10 14.01.10 14.01.10 17.01.10 17.01.10 14.01.10 15.01.10 16.01.10 16.01.10 12.01.10 16.01.10
_ Max-Zeit 15:04 15:42 13:10 12:18 11:56 10:18 10:32 23:14 21:02 18:00 11:14 19:22
Maximum _ 12,6 C 5,9 C 1,8 UV-I 6,5 C 58 % 97 % 100 % 1023,2 hPa 3,2 l/m 13,0 km/h
NO (3 Bft)
0,03 h 39,5 km/h
O-NO (6 Bft)
Durchschnitt _ 10,3 C 0,6 C 0,1 UV-I 0,2 C 48 % 89 % 4 % 1011,4 hPa #12,4 l/m 2,3 km/h (1 Bft) #5:27 h 3,6 km/h (1 Bft)
© 2012 W. Hausmann